Granada, Spain

4:07 AM CEST on August 30, 2016 (GMT +0200)
Granada

Weather History for LEGR - August, 2013

Change the Weather History Date:

Tuesday, August 20, 2013

  Actual Average Record
Temperature  
Mean Temperature 82 °F -  
Max Temperature 104 °F 85 °F 104 °F (2011)
Min Temperature 61 °F 55 °F 52 °F (2014)
Cooling Degree Days 18    
Growing Degree Days 32 (Base 50)    
Moisture  
Dew Point 50 °F    
Average Humidity 33    
Maximum Humidity 68    
Minimum Humidity 12    
Precipitation  
Precipitation 0.00 in - - ()
Sea Level Pressure  
Sea Level Pressure 30.11 in    
Wind  
Wind Speed 2 mph ()    
Max Wind Speed 12 mph    
Max Gust Speed -    
Visibility 7.7 miles    
Events      
Averages and records for this station are not official NWS values.
T = Trace of Precipitation, MM = Missing Value Source: Averaged Metar Reports

Daily Weather History Graph

Daily Weather History Graph

Search for Another Location

Airport or City:

Trip Planner

Search our weather history database for the weather conditions in past years. The results will help you decide how hot, cold, wet, or windy it might be!

Date:

Astronomy

Aug. 20, 2013 Rise Set
Actual Time 7:35 AM CEST 9:00 PM CEST
Civil Twilight 7:08 AM CEST 9:27 PM CEST
Nautical Twilight 6:35 AM CEST 10:00 PM CEST
Astronomical Twilight 6:01 AM CEST 10:34 PM CEST
Moon 8:23 PM CEST (8/20) 6:48 AM CEST (8/20)
Length of Visible Light 14h 19m
Length of Day
13h 24m
Waxing Gibbous, 99% of the Moon is Illuminated
Aug 20
Waxing Gibbous
Aug 21
Full
Aug 28
Last Quarter
Sep 5
New
Sep 12
First Quarter

Hourly Weather History & Observations

Time (CEST) Temp. Heat Index Dew Point Humidity Pressure Visibility Wind Dir Wind Speed Gust Speed Precip Events Conditions
12:00 AM 73.4 °F - 44.6 °F 36% 30.15 in - Variable 1.2 mph - N/A   Clear
12:30 AM 75.2 °F - 44.6 °F 34% 30.15 in - Variable 2.3 mph - N/A   Clear
1:00 AM 73.4 °F - 44.6 °F 36% 30.15 in - SSW 3.5 mph - N/A   Clear
2:00 AM 71 °F - 47 °F 31% 30.08 in 19 mi Calm Calm - -  
6:00 AM 64.4 °F - 53.6 °F 68% 30.15 in - Calm Calm - N/A   Clear
6:30 AM 64.4 °F - 51.8 °F 64% 30.15 in - Variable 1.2 mph - N/A   Clear
7:00 AM 64.4 °F - 53.6 °F 68% 30.15 in - Calm Calm - N/A   Clear
7:30 AM 62.6 °F - 51.8 °F 68% 30.15 in - Variable 1.2 mph - N/A   Clear
8:00 AM 63 °F - 51 °F 55% 30.13 in 12 mi Calm Calm - -  
8:00 AM 64.4 °F - 51.8 °F 64% 30.15 in - Variable 1.2 mph - N/A   Clear
8:30 AM 66.2 °F - 51.8 °F 60% 30.15 in - Calm Calm - N/A   Clear
9:00 AM 69.8 °F - 51.8 °F 53% 30.18 in - Calm Calm - N/A   Clear
9:30 AM 73.4 °F - 51.8 °F 47% 30.18 in - Calm Calm - N/A   Clear
10:00 AM 75.2 °F - 53.6 °F 47% 30.18 in - Calm Calm - N/A   Clear
10:30 AM 77.0 °F - 55.4 °F 47% 30.18 in - Variable 1.2 mph - N/A   Clear
11:00 AM 80.6 °F 80.3 °F 53.6 °F 39% 30.18 in - Calm Calm - N/A   Clear
11:30 AM 84.2 °F 82.8 °F 53.6 °F 35% 30.15 in - Calm Calm - N/A   Clear
12:00 PM 87.8 °F - 51.8 °F 29% 30.15 in - Calm Calm - N/A   Clear
12:30 PM 89.6 °F - 50.0 °F 26% 30.15 in - Variable 1.2 mph - N/A   Clear
1:00 PM 91.4 °F - 50.0 °F 24% 30.15 in 6.2 mi Variable 1.2 mph - N/A   Partly Cloudy
1:30 PM 93.2 °F - 50.0 °F 23% 30.12 in 6.2 mi Variable 2.3 mph - N/A   Partly Cloudy
2:00 PM 96 °F - 51 °F 13% 29.97 in 16 mi NNW 2.3 mph - -   Scattered Clouds
2:00 PM 96.8 °F - 48.2 °F 19% 30.12 in 6.2 mi Variable 2.3 mph - N/A   Partly Cloudy
2:30 PM 98.6 °F - 48.2 °F 18% 30.12 in 6.2 mi Variable 2.3 mph - N/A   Partly Cloudy
3:00 PM 98.6 °F - 44.6 °F 16% 30.12 in 6.2 mi NNW 4.6 mph - N/A   Partly Cloudy
3:30 PM 100.4 °F - 46.4 °F 16% 30.09 in 6.2 mi North 3.5 mph - N/A   Partly Cloudy
4:00 PM 100.4 °F - 44.6 °F 15% 30.09 in 6.2 mi WNW 4.6 mph - N/A   Partly Cloudy
4:30 PM 102.2 °F - 46.4 °F 15% 30.09 in 6.2 mi NNW 3.5 mph - N/A   Partly Cloudy
5:00 PM 102.2 °F - 44.6 °F 14% 30.06 in 6.2 mi SW 4.6 mph - N/A   Partly Cloudy
5:30 PM 102.2 °F - 42.8 °F 13% 30.06 in 6.2 mi Variable 2.3 mph - N/A   Partly Cloudy
6:00 PM 102.2 °F 100.4 °F 53.6 °F 20% 30.06 in 6.2 mi South 9.2 mph - N/A   Partly Cloudy
6:30 PM 100.4 °F - 51.8 °F 20% 30.06 in 6.2 mi SSE 10.4 mph - N/A   Partly Cloudy
7:00 PM 98.6 °F 96.4 °F 53.6 °F 22% 30.06 in 6.2 mi SSE 11.5 mph - N/A   Partly Cloudy
7:30 PM 96.8 °F 95.1 °F 55.4 °F 25% 30.06 in 6.2 mi Variable 9.2 mph - N/A   Partly Cloudy
8:00 PM 96 °F - 49 °F 12% 29.92 in 11 mi SW 9.2 mph - -   Scattered Clouds
8:00 PM 95.0 °F - 50.0 °F 22% 30.06 in 6.2 mi SW 9.2 mph - N/A   Partly Cloudy
8:30 PM 93.2 °F - 48.2 °F 21% 30.06 in 6.2 mi SW 8.1 mph - N/A   Partly Cloudy
9:00 PM 91.4 °F - 48.2 °F 23% 30.09 in 6.2 mi SSW 8.1 mph - N/A   Partly Cloudy
9:30 PM 87.8 °F - 51.8 °F 29% 30.09 in 6.2 mi South 4.6 mph - N/A   Partly Cloudy
10:00 PM 86.0 °F 84.2 °F 53.6 °F 33% 30.09 in - South 9.2 mph - N/A   Clear
10:30 PM 84.2 °F - 51.8 °F 33% 30.12 in - South 8.1 mph - N/A   Clear
11:00 PM 84.2 °F - 50.0 °F 30% 30.12 in - Variable 2.3 mph - N/A   Clear
11:30 PM 84.2 °F - 51.8 °F 33% 30.12 in - Calm Calm - N/A   Clear